This is the latest recevied weather packets stored in our database for station/object W0WC. If no packets are shown the sender has not sent any weather packets the latest 10 day(s).
| Time | Temp. | Humidity | Pressure | Rain* | Wind** | Luminosity | Snow |
|---|---|---|---|---|---|---|---|
| 1778118741 | 11.67° C | 58% | 1018.3 hPa | 0 mm | - | 0 W/m² | - |
| 1778118437 | 12.22° C | 58% | 1018.2 hPa | 0 mm | - | 0 W/m² | - |
| 1778118134 | 12.22° C | 56% | 1018.1 hPa | 0 mm | - | 0 W/m² | - |
| 1778117831 | 12.22° C | 55% | 1018.1 hPa | 0 mm | - | 0 W/m² | - |
| 1778117528 | 12.78° C | 54% | 1018.1 hPa | 0 mm | - | 0 W/m² | - |
| 1778117225 | 12.78° C | 53% | 1018.1 hPa | 0 mm | - | 0 W/m² | - |
| 1778116921 | 13.33° C | 53% | 1017.9 hPa | 0 mm | - | 1 W/m² | - |
| 1778116619 | 13.33° C | 51% | 1017.9 hPa | 0 mm | - | 2 W/m² | - |
| 1778116315 | 13.33° C | 56% | 1017.8 hPa | 0 mm | - | 3 W/m² | - |
| 1778116009 | 13.89° C | 53% | 1017.5 hPa | 0 mm | - | 5 W/m² | - |
| 1778115706 | 13.89° C | 48% | 1017.5 hPa | 0 mm | - | 8 W/m² | - |
| 1778115403 | 14.44° C | 48% | 1017.5 hPa | 0 mm | - | 11 W/m² | - |
| 1778115099 | 14.44° C | 46% | 1017.5 hPa | 0 mm | - | 14 W/m² | - |
| 1778114796 | 14.44° C | 46% | 1017.6 hPa | 0 mm | - | 17 W/m² | - |
| 1778114494 | 15° C | 45% | 1017.6 hPa | 0 mm | - | 19 W/m² | - |
| 1778114190 | 15° C | 45% | 1017.4 hPa | 0 mm | - | 24 W/m² | - |
| 1778113885 | 15° C | 44% | 1017.5 hPa | 0 mm | - | 39 W/m² | - |
| 1778113581 | 15° C | 44% | 1017.5 hPa | 0 mm | - | 45 W/m² | - |
| 1778113277 | 15° C | 44% | 1017.6 hPa | 0 mm | - | 58 W/m² | - |
| 1778112974 | 15° C | 44% | 1017.4 hPa | 0 mm | - | 70 W/m² | - |
| 1778112672 | 15° C | 45% | 1017.4 hPa | 0 mm | - | 71 W/m² | - |
| 1778112368 | 15° C | 45% | 1017.2 hPa | 0 mm | - | 52 W/m² | - |
| 1778112063 | 15° C | 44% | 1017.4 hPa | 0 mm | - | 47 W/m² | - |
| 1778111761 | 15.56° C | 43% | 1017.2 hPa | 0 mm | - | 88 W/m² | - |
| 1778111461 | 15.56° C | 43% | 1017 hPa | 0 mm | - | 110 W/m² | - |
* Rain latest hour (hover to see other rain measurements)
** Current wind speed in m/s (hover to see current wind gust speed)